Weather History for KPWC - November, 2013

Change the Weather History Date:

Monday, November 11, 2013

  Actual Average Record
Temperature  
Mean Temperature 16 °F -  
Max Temperature 21 °F 38 °F 64 °F (2005)
Min Temperature 10 °F 22 °F 8 °F (2006)
Degree Days  
Heating Degree Days 50    
Moisture  
Dew Point 8 °F    
Average Humidity 73    
Maximum Humidity 79    
Minimum Humidity 68    
Precipitation  
Precipitation 0.00 in - - ()
Sea Level Pressure  
Sea Level Pressure 30.50 in    
Wind  
Wind Speed 11 mph (NNW)    
Max Wind Speed 16 mph    
Max Gust Speed 25 mph    
Visibility 10 miles    
Events Snow    
Averages and records for this station are not official NWS values.
T = Trace of Precipitation, MM = Missing Value Source: NWS Daily Summary

Daily Weather History Graph

Daily Weather History Graph

Search for Another Location

Airport or City:

Trip Planner

Search our weather history database for the weather conditions in past years. The results will help you decide how hot, cold, wet, or windy it might be!

Date:

Astronomy

Nov. 11, 2013 Rise Set
Actual Time 7:14 AM CST 4:47 PM CST
Civil Twilight 6:42 AM CST 5:20 PM CST
Nautical Twilight 6:05 AM CST 5:56 PM CST
Astronomical Twilight 5:29 AM CST 6:32 PM CST
Moon 1:49 PM CST (11/11) 12:38 AM CST (11/11)
Length of Visible Light 10h 38m
Length of Day
9h 33m
Waxing Gibbous, 66% of the Moon is Illuminated
Nov 11
Waxing Gibbous
Nov 17
Full
Nov 25
Last Quarter
Dec 2
New
Dec 9
First Quarter

Hourly Weather History & Observations

Time (CST) Temp. Windchill Dew Point Humidity Pressure Visibility Wind Dir Wind Speed Gust Speed Precip Events Conditions
12:12 AM 21.2 °F 9.5 °F 12.2 °F 68% 30.23 in 10.0 mi North 11.5 mph 16.1 mph N/A   Scattered Clouds
12:33 AM 19.4 °F 5.0 °F 12.2 °F 74% 30.24 in 10.0 mi North 16.1 mph 23.0 mph N/A   Clear
12:53 AM 19.4 °F 9.5 °F 12.2 °F 74% 30.25 in 10.0 mi NNW 8.1 mph - N/A   Scattered Clouds
1:13 AM 19.4 °F 5.5 °F 12.2 °F 74% 30.26 in 10.0 mi NNW 15.0 mph 21.9 mph N/A   Scattered Clouds
1:33 AM 19.4 °F 6.0 °F 12.2 °F 74% 30.27 in 10.0 mi NNW 13.8 mph 20.7 mph N/A   Mostly Cloudy
1:53 AM 19.4 °F 5.0 °F 10.4 °F 68% 30.27 in 10.0 mi North 16.1 mph 19.6 mph N/A   Mostly Cloudy
2:13 AM 17.6 °F 3.7 °F 10.4 °F 73% 30.28 in 10.0 mi North 13.8 mph 21.9 mph N/A   Mostly Cloudy
2:33 AM 17.6 °F 4.3 °F 10.4 °F 73% 30.29 in 10.0 mi North 12.7 mph 20.7 mph N/A   Scattered Clouds
2:53 AM 15.8 °F 0.3 °F 8.6 °F 73% 30.30 in 10.0 mi North 16.1 mph 25.3 mph N/A   Scattered Clouds
3:13 AM 15.8 °F 1.4 °F 8.6 °F 73% 30.31 in 10.0 mi NNW 13.8 mph 24.2 mph N/A   Mostly Cloudy
3:33 AM 15.8 °F 2.7 °F 8.6 °F 73% 30.32 in 10.0 mi North 11.5 mph 18.4 mph N/A   Mostly Cloudy
3:52 AM 15.8 °F 1.4 °F 8.6 °F 73% 30.33 in 10.0 mi NNW 13.8 mph 20.7 mph N/A Snow Light Snow
4:13 AM 15.8 °F 2.1 °F 8.6 °F 73% 30.33 in 10.0 mi NNW 12.7 mph 16.1 mph N/A   Overcast
4:32 AM 15.8 °F 4.2 °F 8.6 °F 73% 30.34 in 10.0 mi NNW 9.2 mph - N/A   Overcast
4:53 AM 15.8 °F 0.9 °F 8.6 °F 73% 30.34 in 10.0 mi NNW 15.0 mph 20.7 mph N/A   Overcast
5:13 AM 15.8 °F 2.7 °F 8.6 °F 73% 30.35 in 10.0 mi NNW 11.5 mph - N/A   Overcast
5:33 AM 15.8 °F 4.2 °F 8.6 °F 73% 30.36 in 10.0 mi NNW 9.2 mph - N/A   Overcast
5:52 AM 15.8 °F 2.7 °F 8.6 °F 73% 30.37 in 10.0 mi NNW 11.5 mph 17.3 mph N/A   Overcast
6:13 AM 15.8 °F 3.4 °F 8.6 °F 73% 30.39 in 10.0 mi North 10.4 mph 17.3 mph N/A Snow Light Snow
6:33 AM 15.8 °F 2.1 °F 8.6 °F 73% 30.40 in 10.0 mi North 12.7 mph 17.3 mph N/A   Overcast
6:53 AM 15.8 °F 2.7 °F 8.6 °F 73% 30.41 in 10.0 mi NW 11.5 mph - N/A Snow Light Snow
7:13 AM 15.8 °F 6.1 °F 8.6 °F 73% 30.42 in 10.0 mi NNW 6.9 mph 16.1 mph N/A Snow Light Snow
7:32 AM 15.8 °F 3.4 °F 8.6 °F 73% 30.43 in 7.0 mi North 10.4 mph - N/A Snow Light Snow
7:53 AM 15.8 °F 4.2 °F 8.6 °F 73% 30.44 in 5.0 mi North 9.2 mph - N/A Snow Light Snow
8:12 AM 15.8 °F 3.4 °F 8.6 °F 73% 30.45 in 7.0 mi North 10.4 mph - N/A Snow Light Snow
8:33 AM 15.8 °F 4.2 °F 8.6 °F 73% 30.46 in 10.0 mi North 9.2 mph 18.4 mph N/A   Overcast
8:53 AM 15.8 °F 2.1 °F 8.6 °F 73% 30.47 in 3.0 mi NNW 12.7 mph 20.7 mph N/A Snow Light Snow
9:13 AM 15.8 °F 4.2 °F 8.6 °F 73% 30.47 in 7.0 mi NNW 9.2 mph - N/A   Overcast
9:32 AM 15.8 °F 2.7 °F 8.6 °F 73% 30.48 in 7.0 mi NNW 11.5 mph 17.3 mph N/A Snow Light Snow
9:53 AM 15.8 °F 4.2 °F 8.6 °F 73% 30.49 in 7.0 mi NW 9.2 mph 19.6 mph N/A Snow Light Snow
10:13 AM 15.8 °F 5.1 °F 10.4 °F 79% 30.50 in 7.0 mi NW 8.1 mph 16.1 mph N/A Snow Light Snow
10:33 AM 15.8 °F 2.1 °F 8.6 °F 73% 30.51 in 10.0 mi NNW 12.7 mph 17.3 mph N/A   Overcast
10:53 AM 15.8 °F 0.9 °F 8.6 °F 73% 30.52 in 7.0 mi NNW 15.0 mph - N/A Snow Light Snow
11:13 AM 15.8 °F 3.4 °F 8.6 °F 73% 30.52 in 7.0 mi NNW 10.4 mph 16.1 mph N/A Snow Light Snow
11:32 AM 15.8 °F 4.2 °F 8.6 °F 73% 30.52 in 10.0 mi North 9.2 mph 16.1 mph N/A   Overcast
11:53 AM 15.8 °F 2.1 °F 8.6 °F 73% 30.52 in 10.0 mi NNW 12.7 mph 20.7 mph N/A   Overcast
12:13 PM 15.8 °F 2.7 °F 8.6 °F 73% 30.53 in 10.0 mi NNW 11.5 mph 18.4 mph N/A Snow Light Snow
12:32 PM 15.8 °F 3.4 °F 8.6 °F 73% 30.54 in 10.0 mi NNW 10.4 mph 17.3 mph N/A   Overcast
12:53 PM 15.8 °F 2.7 °F 8.6 °F 73% 30.54 in 10.0 mi NW 11.5 mph 17.3 mph N/A   Overcast
1:13 PM 15.8 °F 2.1 °F 8.6 °F 73% 30.54 in 10.0 mi NW 12.7 mph 18.4 mph N/A   Overcast
1:33 PM 17.6 °F 6.4 °F 8.6 °F 68% 30.54 in 10.0 mi NNW 9.2 mph 16.1 mph N/A   Overcast
1:52 PM 15.8 °F 2.7 °F 8.6 °F 73% 30.55 in 10.0 mi NW 11.5 mph 17.3 mph N/A   Overcast
2:13 PM 15.8 °F 2.1 °F 8.6 °F 73% 30.56 in 10.0 mi NNW 12.7 mph - N/A   Overcast
2:32 PM 17.6 °F 5.7 °F 8.6 °F 68% 30.56 in 10.0 mi NNW 10.4 mph 19.6 mph N/A   Overcast
2:53 PM 15.8 °F 2.7 °F 6.8 °F 68% 30.56 in 10.0 mi NNW 11.5 mph 18.4 mph N/A   Overcast
3:12 PM 15.8 °F 3.4 °F 6.8 °F 68% 30.56 in 10.0 mi NNW 10.4 mph - N/A   Overcast
3:33 PM 15.8 °F 4.2 °F 6.8 °F 68% 30.57 in 10.0 mi NNW 9.2 mph 20.7 mph N/A   Overcast
3:52 PM 15.8 °F 2.7 °F 6.8 °F 68% 30.58 in 10.0 mi NW 11.5 mph 20.7 mph N/A   Overcast
4:13 PM 15.8 °F 1.4 °F 6.8 °F 68% 30.59 in 10.0 mi NNW 13.8 mph 20.7 mph N/A   Overcast
4:33 PM 15.8 °F 3.4 °F 6.8 °F 68% 30.60 in 10.0 mi North 10.4 mph - N/A   Overcast
4:52 PM 15.8 °F 4.2 °F 6.8 °F 68% 30.60 in 10.0 mi NNW 9.2 mph - N/A   Mostly Cloudy
5:13 PM 14.0 °F 2.0 °F 6.8 °F 73% 30.61 in 10.0 mi NNW 9.2 mph - N/A   Mostly Cloudy
5:33 PM 14.0 °F 1.2 °F 6.8 °F 73% 30.62 in 10.0 mi North 10.4 mph - N/A   Overcast
5:53 PM 14.0 °F 2.0 °F 6.8 °F 73% 30.62 in 10.0 mi NNW 9.2 mph - N/A   Overcast
6:10 PM 14.0 °F 3.9 °F 6.8 °F 73% 30.63 in 10.0 mi NNW 6.9 mph - N/A   Overcast
6:32 PM 14.0 °F 0.5 °F 6.8 °F 73% 30.64 in 10.0 mi NNW 11.5 mph - N/A   Overcast
6:53 PM 14.0 °F 1.2 °F 6.8 °F 73% 30.65 in 10.0 mi NNW 10.4 mph - N/A   Overcast
7:13 PM 14.0 °F 2.0 °F 6.8 °F 73% 30.66 in 10.0 mi North 9.2 mph - N/A   Overcast
7:33 PM 14.0 °F 2.0 °F 6.8 °F 73% 30.66 in 10.0 mi NNW 9.2 mph - N/A   Overcast
7:53 PM 14.0 °F 1.2 °F 6.8 °F 73% 30.66 in 10.0 mi NNW 10.4 mph - N/A   Overcast
8:13 PM 12.2 °F -0.2 °F 6.8 °F 79% 30.67 in 10.0 mi NNW 9.2 mph - N/A   Overcast
8:33 PM 12.2 °F -1.0 °F 6.8 °F 79% 30.67 in 10.0 mi NNW 10.4 mph - N/A   Overcast
8:53 PM 12.2 °F -1.8 °F 6.8 °F 79% 30.68 in 10.0 mi NNW 11.5 mph 16.1 mph N/A   Overcast
9:13 PM 12.2 °F -1.0 °F 6.8 °F 79% 30.68 in 10.0 mi NW 10.4 mph - N/A   Overcast
9:33 PM 12.2 °F -1.0 °F 6.8 °F 79% 30.68 in 10.0 mi North 10.4 mph - N/A   Overcast
9:52 PM 12.2 °F 2.9 °F 6.8 °F 79% 30.69 in 10.0 mi North 5.8 mph - N/A   Overcast
10:13 PM 12.2 °F -0.2 °F 6.8 °F 79% 30.69 in 10.0 mi NNW 9.2 mph - N/A   Overcast
10:32 PM 12.2 °F 1.7 °F 6.8 °F 79% 30.69 in 10.0 mi NW 6.9 mph - N/A   Mostly Cloudy
10:52 PM 12.2 °F 2.9 °F 6.8 °F 79% 30.70 in 10.0 mi NW 5.8 mph - N/A   Mostly Cloudy
11:13 PM 12.2 °F 4.3 °F 6.8 °F 79% 30.70 in 10.0 mi NW 4.6 mph - N/A   Overcast
11:33 PM 10.4 °F 0.8 °F 5.0 °F 79% 30.71 in 10.0 mi WNW 5.8 mph - N/A   Overcast
11:53 PM 10.4 °F 0.8 °F 5.0 °F 79% 30.71 in 10.0 mi WNW 5.8 mph - N/A   Scattered Clouds